Погода в Петропавловке

Россия / Республика Бурятия     50°36′36″N   105°19′03″E
темп.,
°C
ветер,
м/с
пор.,
м/с
влажн.,
%
обл.,
%
осадки,
мм/ч
давл.,
гПа
погр.,
м
25 января, вт
вт2523:00−22юз219999 0.0 103611
02:00−20юз2197100 0.0 103719
05:00−20юз2197100 0.0 103619
08:00−20зюз2297100 0.0 103720
11:00−16з2285100 0.0 1036102
14:00−12зюз1275100 0.0 1034227
17:00−14юз1189100 0.0 103410
20:00−21юз219789 0.0 103810
26 января, ср
ср2623:00−21юз219798 0.0 103912
02:00−25юз2210021 0.0 104112
05:00−27юз2210048 0.0 104113
08:00−28юз2210050 0.0 104213
11:00−21зюз229334 0.0 104092
14:00−15з11815 0.0 1036220
17:00−18всв01967 0.0 10379
20:00−26ююз1110042 0.0 10429
27 января, чт
чт2723:00−27юз2110068 0.0 104310
02:00−28юз2110072 0.0 104410
05:00−29юз2110066 0.0 104411
08:00−30юз2110057 0.0 104511
11:00−23зюз129426 0.0 104391
14:00−17сз01827 0.0 1039221
17:00−20св11976 0.0 10409
20:00−26ююз1110055 0.0 10459
28 января, пт
пт2823:00−28юз1110058 0.0 10469
02:00−29юз1110068 0.0 10469
05:00−27юз1110089 0.0 104410
08:00−25юз1199100 0.0 104410
11:00−20з119288 0.0 104284
14:00−16ссв118187 0.0 1038225
17:00−19св1197100 0.0 10399
20:00−23юз0199100 0.0 10419
29 января, сб
сб2923:00−22юз1198100 0.0 10419
02:00−22юз1198100 0.0 104010
05:00−22юз119791 0.0 10409
08:00−24юз1199100 0.0 10419
11:00−19зсз119126 0.0 104086
14:00−15ссв107911 0.0 1037249
17:00−18всв11965 0.0 10389
20:00−25ююз1110061 0.0 10439